Hourly Data Report for January 14, 2017

TORONTO CITY
ONTARIO

43°40'00.000" N
79°24'00.000" W
112.50 m
6158355
71508
XTO

Download Data

Hourly Data (January 2017)
Hourly Data Report for January 14, 2017
TIME
LST
Temp Definition
°C
Dew Point Definition
°C
Rel Hum Definition
%
Precip. Amount Definition
mm

Wind Dir Definition
10's deg

Wind Spd Definition
km/h
Visibility Definition
km
Stn Press Definition
kPa
Hmdx Definition


Wind Chill Definition


Weather Definition


00:00 -7.3 -12.4 67 0.0 LegendMM LegendMM   102.70     LegendNANA
01:00 -7.7 -13.0 66 0.0 LegendMM LegendMM   102.68     LegendNANA
02:00 -7.6 -13.3 64 0.0 LegendMM LegendMM   102.62     LegendNANA
03:00 -8.0 -14.3 61 0.0 LegendMM LegendMM   102.58     LegendNANA
04:00 -8.3 -15.8 55 0.0 LegendMM LegendMM   102.53     LegendNANA
05:00 -8.3 -14.6 61 0.0 LegendMM LegendMM   102.43     LegendNANA
06:00 -8.3 -13.4 67 0.0 LegendMM LegendMM   102.39     LegendNANA
07:00 -8.3 -13.7 65 0.0 LegendMM LegendMM   102.29     LegendNANA
08:00 -7.9 -13.2 66 0.0 LegendMM LegendMM   102.25     LegendNANA
09:00 -7.7 -12.5 68 0.0 LegendMM LegendMM   102.21     LegendNANA
10:00 -6.6 -10.5 74 0.0 LegendMM LegendMM   102.12     LegendNANA
11:00 -5.7 -9.5 74 0.0 LegendMM LegendMM   102.01     LegendNANA
12:00 -4.6 -7.8 79 0.0 LegendMM LegendMM   101.84     LegendNANA
13:00 -4.0 -6.8 81 0.0 LegendMM LegendMM   101.72     LegendNANA
14:00 -3.4 -6.3 81 0.0 LegendMM LegendMM   101.56     LegendNANA
15:00 -2.7 -5.7 80 0.0 LegendMM LegendMM   101.51     LegendNANA
16:00 -2.1 -6.3 73 0.0 LegendMM LegendMM   101.45     LegendNANA
17:00 -2.8 -6.4 76 0.0 LegendMM LegendMM   101.41     LegendNANA
18:00 -3.0 -6.2 79 0.0 LegendMM LegendMM   101.40     LegendNANA
19:00 -2.7 -6.4 76 0.0 LegendMM LegendMM   101.38     LegendNANA
20:00 -3.1 -6.8 75 0.0 LegendMM LegendMM   101.36     LegendNANA
21:00 -3.6 -7.0 77 0.0 LegendMM LegendMM   101.36     LegendNANA
22:00 -3.6 -7.0 77 0.0 LegendMM LegendMM   101.36     LegendNANA
23:00 -3.8 -7.3 76 0.0 LegendMM LegendMM   101.37     LegendNANA

Notes on Data Quality.

Legend

  • E = Estimated
  • M = Missing
  • NA = Not Available*
  • [empty] = Indicates an unobserved value
Date modified: